• In Italy
  • List of Countries
  • For 7 days
  • Water Temperature
  • Satellite Maps
  • Weather Map
  • Weather Widgets
  • user-avatar
    Login

    Hourly Weather Artashat

    Today, 20 September, Thursday

    Time Temperature Precipitation Wind Pressure Humidity
    00:00 +13°C° 0 mm 2 mps 605 mmHg 57%
    01:00 +12°C° 0 mm 2 mps 605 mmHg 60%
    02:00 +12°C° 0 mm 1 mps 605 mmHg 63%
    03:00 +11°C° 0 mm 1 mps 604 mmHg 66%
    04:00 +11°C° 0 mm 1 mps 604 mmHg 68%
    05:00 +10°C° 0 mm 1 mps 604 mmHg 70%
    06:00 +10°C° 0 mm 1 mps 604 mmHg 73%
    07:00 +12°C° 0 mm 1 mps 605 mmHg 64%
    08:00 +13°C° 0 mm 1 mps 606 mmHg 55%
    09:00 +15°C° 0 mm 2 mps 607 mmHg 46%
    10:00 +16°C° 0 mm 2 mps 607 mmHg 42%
    11:00 +18°C° 0 mm 2 mps 607 mmHg 38%
    12:00 +19°C° 0 mm 2 mps 607 mmHg 34%
    13:00 +19°C° 0 mm 2 mps 607 mmHg 33%
    14:00 +20°C° 0 mm 2 mps 607 mmHg 32%
    15:00 +21°C° 0 mm 2 mps 607 mmHg 31%
    16:00 +19°C° 0 mm 2 mps 606 mmHg 33%
    17:00 +18°C° 0 mm 2 mps 606 mmHg 36%
    18:00 +17°C° 0 mm 2 mps 606 mmHg 38%
    19:00 +16°C° 0 mm 2 mps 606 mmHg 41%
    20:00 +15°C° 0 mm 2 mps 606 mmHg 44%
    21:00 +14°C° 0 mm 1 mps 606 mmHg 48%
    22:00 +14°C° 0 mm 1 mps 605 mmHg 50%
    23:00 +13°C° 0 mm 1 mps 605 mmHg 53%

    Tomorrow, 21 September, Friday

    Time Temperature Precipitation Wind Pressure Humidity
    00:00 +13°C° 0 mm 1 mps 605 mmHg 55%
    01:00 +12°C° 0 mm 1 mps 605 mmHg 58%
    02:00 +12°C° 0 mm 1 mps 605 mmHg 60%
    03:00 +11°C° 0 mm 1 mps 604 mmHg 62%
    04:00 +11°C° 0 mm 1 mps 604 mmHg 65%
    05:00 +11°C° 0 mm 1 mps 604 mmHg 67%
    06:00 +10°C° 0 mm 1 mps 604 mmHg 70%
    07:00 +12°C° 0 mm 1 mps 605 mmHg 63%
    08:00 +14°C° 0 mm 1 mps 605 mmHg 55%
    09:00 +16°C° 0 mm 1 mps 606 mmHg 48%
    10:00 +17°C° 0 mm 2 mps 606 mmHg 44%
    11:00 +18°C° 0 mm 2 mps 607 mmHg 40%
    12:00 +20°C° 0 mm 2 mps 607 mmHg 36%
    13:00 +20°C° 0 mm 2 mps 607 mmHg 34%
    14:00 +21°C° 0 mm 2 mps 606 mmHg 32%
    15:00 +21°C° 0 mm 2 mps 606 mmHg 31%
    16:00 +20°C° 0 mm 2 mps 606 mmHg 34%
    17:00 +19°C° 0 mm 2 mps 605 mmHg 37%
    18:00 +18°C° 0 mm 1 mps 605 mmHg 40%
    19:00 +16°C° 0.1 mm 1 mps 605 mmHg 44%
    20:00 +16°C° 0.1 mm 1 mps 605 mmHg 48%
    21:00 +15°C° 0.1 mm 1 mps 605 mmHg 52%
    22:00 +14°C° 0 mm 1 mps 605 mmHg 53%
    23:00 +14°C° 0 mm 1 mps 605 mmHg 55%

    Day after tomorrow, 22 September, Saturday

    Time Temperature Precipitation Wind Pressure Humidity
    00:00 +13°C° 0 mm 1 mps 605 mmHg 57%
    01:00 +13°C° 0 mm 1 mps 605 mmHg 59%
    02:00 +12°C° 0 mm 1 mps 604 mmHg 60%
    03:00 +12°C° 0 mm 1 mps 604 mmHg 62%
    04:00 +11°C° 0 mm 1 mps 604 mmHg 63%
    05:00 +11°C° 0 mm 1 mps 604 mmHg 64%
    06:00 +10°C° 0 mm 1 mps 604 mmHg 66%
    07:00 +13°C° 0 mm 1 mps 605 mmHg 58%
    08:00 +15°C° 0 mm 1 mps 606 mmHg 50%
    09:00 +18°C° 0 mm 1 mps 606 mmHg 42%
    10:00 +19°C° 0 mm 1 mps 607 mmHg 38%
    11:00 +19°C° 0 mm 2 mps 607 mmHg 34%
    12:00 +20°C° 0 mm 2 mps 607 mmHg 30%
    13:00 +20°C° 0 mm 2 mps 607 mmHg 29%
    14:00 +20°C° 0 mm 2 mps 606 mmHg 28%
    15:00 +21°C° 0 mm 2 mps 606 mmHg 27%
    16:00 +19°C° 0 mm 2 mps 606 mmHg 30%
    17:00 +18°C° 0 mm 2 mps 605 mmHg 34%
    18:00 +17°C° 0 mm 2 mps 605 mmHg 37%
    19:00 +16°C° 0 mm 1 mps 605 mmHg 41%
    20:00 +15°C° 0 mm 1 mps 605 mmHg 45%
    21:00 +14°C° 0 mm 1 mps 605 mmHg 50%
    22:00 +14°C° 0 mm 1 mps 605 mmHg 51%
    23:00 +13°C° 0 mm 1 mps 605 mmHg 52%

    23 September, Sunday

    Time Temperature Precipitation Wind Pressure Humidity
    00:00 +13°C° 0 mm 1 mps 604 mmHg 53%
    01:00 +12°C° 0 mm 1 mps 604 mmHg 54%
    02:00 +12°C° 0 mm 1 mps 604 mmHg 55%
    03:00 +11°C° 0 mm 1 mps 604 mmHg 56%
    04:00 +11°C° 0 mm 1 mps 604 mmHg 58%
    05:00 +10°C° 0 mm 1 mps 604 mmHg 59%
    06:00 +10°C° 0 mm 1 mps 603 mmHg 60%
    07:00 +12°C° 0 mm 1 mps 604 mmHg 52%
    08:00 +14°C° 0 mm 1 mps 605 mmHg 44%
    09:00 +16°C° 0 mm 1 mps 606 mmHg 36%
    10:00 +19°C° 0 mm 1 mps 606 mmHg 33%
    11:00 +20°C° 0 mm 1 mps 606 mmHg 30%
    12:00 +20°C° 0 mm 2 mps 606 mmHg 27%
    13:00 +21°C° 0 mm 2 mps 606 mmHg 26%
    14:00 +21°C° 0 mm 2 mps 606 mmHg 25%
    15:00 +21°C° 0 mm 2 mps 606 mmHg 24%
    16:00 +20°C° 0 mm 2 mps 605 mmHg 27%
    17:00 +19°C° 0 mm 1 mps 604 mmHg 30%
    18:00 +18°C° 0 mm 1 mps 604 mmHg 33%
    19:00 +16°C° 0 mm 1 mps 604 mmHg 36%
    20:00 +15°C° 0 mm 1 mps 604 mmHg 39%
    21:00 +14°C° 0 mm 1 mps 604 mmHg 43%
    22:00 +14°C° 0 mm 1 mps 604 mmHg 45%
    23:00 +13°C° 0 mm 1 mps 604 mmHg 46%

    24 September, Monday

    Time Temperature Precipitation Wind Pressure Humidity
    00:00 +13°C° 0 mm 2 mps 604 mmHg 48%
    01:00 +12°C° 0 mm 1 mps 603 mmHg 50%
    02:00 +12°C° 0 mm 1 mps 603 mmHg 52%
    03:00 +11°C° 0 mm 1 mps 603 mmHg 54%
    04:00 +11°C° 0 mm 1 mps 603 mmHg 56%
    05:00 +11°C° 0 mm 1 mps 603 mmHg 58%
    06:00 +10°C° 0 mm 1 mps 603 mmHg 60%
    07:00 +12°C° 0 mm 2 mps 604 mmHg 54%
    08:00 +14°C° 0 mm 2 mps 605 mmHg 47%
    09:00 +16°C° 0 mm 2 mps 606 mmHg 41%
    10:00 +17°C° 0 mm 2 mps 606 mmHg 38%
    11:00 +18°C° 0 mm 2 mps 606 mmHg 34%
    12:00 +20°C° 0 mm 2 mps 606 mmHg 31%
    13:00 +20°C° 0 mm 2 mps 606 mmHg 30%
    14:00 +20°C° 0 mm 2 mps 606 mmHg 28%
    15:00 +21°C° 0 mm 2 mps 606 mmHg 27%
    16:00 +20°C° 0 mm 2 mps 605 mmHg 30%
    17:00 +18°C° 0 mm 2 mps 605 mmHg 33%
    18:00 +18°C° 0 mm 1 mps 604 mmHg 36%
    19:00 +16°C° 0 mm 1 mps 605 mmHg 39%
    20:00 +15°C° 0 mm 1 mps 605 mmHg 42%
    21:00 +14°C° 0 mm 1 mps 605 mmHg 44%
    22:00 +14°C° 0 mm 1 mps 604 mmHg 46%
    23:00 +13°C° 0 mm 1 mps 604 mmHg 47%

    25 September, Tuesday

    Time Temperature Precipitation Wind Pressure Humidity
    00:00 +13°C° 0 mm 1 mps 604 mmHg 49%
    01:00 +12°C° 0 mm 1 mps 603 mmHg 49%
    02:00 +12°C° 0 mm 1 mps 603 mmHg 50%
    03:00 +11°C° 0 mm 1 mps 603 mmHg 51%
    04:00 +10°C° 0 mm 0 mps 603 mmHg 51%
    05:00 +9°C° 0 mm 0 mps 602 mmHg 52%
    06:00 +9°C° 0 mm 0 mps 602 mmHg 53%
    07:00 +12°C° 0 mm 1 mps 603 mmHg 45%
    08:00 +15°C° 0 mm 1 mps 604 mmHg 38%
    09:00 +19°C° 0 mm 1 mps 605 mmHg 31%
    10:00 +20°C° 0 mm 1 mps 606 mmHg 28%
    11:00 +20°C° 0 mm 2 mps 606 mmHg 25%
    12:00 +23°C° 0 mm 2 mps 606 mmHg 23%
    13:00 +23°C° 0 mm 2 mps 606 mmHg 22%
    14:00 +24°C° 0 mm 2 mps 605 mmHg 21%
    15:00 +24°C° 0 mm 2 mps 605 mmHg 20%
    16:00 +23°C° 0 mm 2 mps 604 mmHg 23%
    17:00 +20°C° 0 mm 2 mps 604 mmHg 26%
    18:00 +19°C° 0 mm 1 mps 603 mmHg 29%
    19:00 +18°C° 0 mm 1 mps 603 mmHg 32%
    20:00 +18°C° 0 mm 1 mps 603 mmHg 34%
    21:00 +16°C° 0 mm 1 mps 603 mmHg 37%
    22:00 +15°C° 0 mm 1 mps 603 mmHg 37%
    23:00 +15°C° 0 mm 1 mps 603 mmHg 38%
    Show more